Weather History for Bakersfield, CA

Change the Weather History Date:

Saturday, March 30, 2013

  Actual Average Record
Temperature  
Mean Temperature 72 °F 59 °F  
Max Temperature 86 °F 71 °F 88 °F (1923)
Min Temperature 58 °F 48 °F 30 °F (1907)
Degree Days  
Heating Degree Days 0    
Month to date heating degree days 149  
Since 1 July heating degree days 1769  
Cooling Degree Days 7    
Month to date cooling degree days 17  
Year to date cooling degree days 17  
Growing Degree Days 22 (Base 50)    
Moisture  
Dew Point 44 °F    
Average Humidity 41    
Maximum Humidity 62    
Minimum Humidity 19    
Precipitation  
Precipitation 0.00 in 0.03 in 0.28 in (1946)
Month to date precipitation 0.80 1.18  
Year to date precipitation 2.23 3.58  
Since 1 July precipitation 3.02 5.66  
Snow  
Snow 0.00 in - - ()
Month to date snowfall 0.0  
Since 1 July snowfall 0.0  
Snow Depth 0.00 in    
Sea Level Pressure  
Sea Level Pressure 29.99 in    
Wind  
Wind Speed 4 mph (NNW)    
Max Wind Speed 14 mph    
Max Gust Speed 17 mph    
Visibility 10 miles    
Events      
T = Trace of Precipitation, MM = Missing Value Source: NWS Daily Summary

Daily Weather History Graph

Daily Weather History Graph

Search for Another Location

Airport:

Trip Planner

Search our weather history database for the weather conditions in past years. The results will help you decide how hot, cold, wet, or windy it might be!

Date:

Astronomy

Mar. 30, 2013 Rise Set
Actual Time 6:45 AM PDT 7:16 PM PDT
Civil Twilight 6:19 AM PDT 7:42 PM PDT
Nautical Twilight 5:49 AM PDT 8:12 PM PDT
Astronomical Twilight 5:18 AM PDT 8:42 PM PDT
Moon 11:19 PM PDT (3/30) 8:52 AM PDT (3/30)
Length of Visible Light 13h 22m
Length of Day
12h 31m
Waning Gibbous, 85% of the Moon is Illuminated
Mar 30
Waning Gibbous
Apr 2
Last Quarter
Apr 10
New
Apr 18
First Quarter
Apr 25
Full

Hourly Weather History & Observations

Time (PDT) Temp. Dew Point Humidity Pressure Visibility Wind Dir Wind Speed Gust Speed Precip Events Conditions
12:54 AM 64.9 °F 44.1 °F 47% 30.01 in 10.0 mi NE 4.6 mph - N/A   Clear
1:54 AM 64.9 °F 45.0 °F 48% 30.02 in 10.0 mi Calm Calm - N/A   Clear
2:54 AM 64.0 °F 45.0 °F 50% 29.99 in 10.0 mi NE 5.8 mph - N/A   Clear
3:54 AM 61.0 °F 45.0 °F 56% 29.99 in 10.0 mi Calm Calm - N/A   Clear
4:54 AM 59.0 °F 46.0 °F 62% 30.00 in 10.0 mi North 3.5 mph - N/A   Clear
5:54 AM 61.0 °F 45.0 °F 56% 30.00 in 10.0 mi North 6.9 mph - N/A   Clear
6:54 AM 60.1 °F 45.0 °F 57% 30.02 in 10.0 mi NNE 6.9 mph - N/A   Clear
7:54 AM 64.0 °F 46.0 °F 52% 30.04 in 10.0 mi Calm Calm - N/A   Clear
8:54 AM 69.1 °F 45.0 °F 42% 30.04 in 10.0 mi Calm Calm - N/A   Clear
9:54 AM 71.1 °F 45.0 °F 39% 30.04 in 10.0 mi Calm Calm - N/A   Clear
10:54 AM 73.9 °F 45.0 °F 35% 30.04 in 10.0 mi Variable 3.5 mph - N/A   Clear
11:54 AM 75.9 °F 48.0 °F 37% 30.03 in 10.0 mi Variable 4.6 mph - N/A   Clear
12:54 PM 79.0 °F 46.0 °F 31% 30.00 in 10.0 mi Calm Calm - N/A   Clear
1:54 PM 82.0 °F 45.0 °F 27% 29.97 in 10.0 mi WNW 6.9 mph - N/A   Clear
2:54 PM 84.0 °F 41.0 °F 22% 29.94 in 10.0 mi NW 9.2 mph - N/A   Clear
3:54 PM 84.9 °F 37.9 °F 19% 29.92 in 10.0 mi WNW 4.6 mph 16.1 mph N/A   Clear
4:54 PM 86.0 °F 35.1 °F 16% 29.90 in 10.0 mi WNW 10.4 mph 16.1 mph N/A   Clear
5:54 PM 82.9 °F 39.9 °F 22% 29.89 in 10.0 mi WNW 12.7 mph - N/A   Clear
6:54 PM 75.9 °F 43.0 °F 31% 29.90 in 10.0 mi NW 19.6 mph 26.5 mph N/A   Clear
7:54 PM 71.1 °F 44.1 °F 38% 29.93 in 10.0 mi NNW 16.1 mph - N/A   Clear
8:54 PM 68.0 °F 45.0 °F 43% 29.98 in 10.0 mi North 10.4 mph - N/A   Clear
9:54 PM 66.9 °F 45.0 °F 45% 29.99 in 10.0 mi North 15.0 mph - N/A   Clear
10:54 PM 64.9 °F 46.0 °F 50% 30.01 in 10.0 mi North 16.1 mph - N/A   Mostly Cloudy
11:54 PM 64.0 °F 46.0 °F 52% 30.01 in 10.0 mi North 12.7 mph - N/A   Mostly Cloudy